Weather History for Kahului, HI

Change the Weather History Date:

Thursday, January 10, 2013

  Actual Average Record
Temperature  
Mean Temperature 73 °F 72 °F  
Max Temperature 83 °F 81 °F 90 °F (1959)
Min Temperature 62 °F 64 °F 50 °F (1970)
Degree Days  
Heating Degree Days 0 0  
Month to date heating degree days 0 0  
Since 1 July heating degree days 0 0  
Cooling Degree Days 8 7  
Month to date cooling degree days 83 70  
Year to date cooling degree days 83 70  
Growing Degree Days 22 (Base 50)    
Moisture  
Dew Point 61 °F    
Average Humidity 71    
Maximum Humidity 90    
Minimum Humidity 51    
Precipitation  
Precipitation 0.00 in 0.09 in 4.70 in (1980)
Month to date precipitation 0.81 1.00  
Year to date precipitation 0.81 1.00  
Snow  
Snow 0.00 in - - ()
Month to date snowfall 0.0  
Since 1 July snowfall 0.0  
Snow Depth 0.00 in    
Sea Level Pressure  
Sea Level Pressure 29.96 in    
Wind  
Wind Speed 11 mph (East)    
Max Wind Speed 26 mph    
Max Gust Speed 33 mph    
Visibility 10 miles    
Events      
T = Trace of Precipitation, MM = Missing Value Source: NWS Daily Summary

Daily Weather History Graph

Daily Weather History Graph

Search for Another Location

Airport:

Trip Planner

Search our weather history database for the weather conditions in past years. The results will help you decide how hot, cold, wet, or windy it might be!

Date:

Astronomy

Jan. 10, 2013 Rise Set
Actual Time 7:04 AM HST 6:02 PM HST
Civil Twilight 6:40 AM HST 6:26 PM HST
Nautical Twilight 6:13 AM HST 6:53 PM HST
Astronomical Twilight 5:46 AM HST 7:20 PM HST
Moon 5:56 AM HST (1/10) 5:20 PM HST (1/10)
Length of Visible Light 11h 45m
Length of Day
10h 57m
Waning Crescent, 1% of the Moon is Illuminated
Jan 10
Waning Crescent
Jan 11
New
Jan 18
First Quarter
Jan 26
Full
Feb 3
Last Quarter

Hourly Weather History & Observations

Time (HST) Temp. Heat Index Dew Point Humidity Pressure Visibility Wind Dir Wind Speed Gust Speed Precip Events Conditions
12:54 AM 70.0 °F - 62.1 °F 76% 29.98 in 10.0 mi NE 12.7 mph - N/A   Clear
1:54 AM 70.0 °F - 61.0 °F 73% 29.96 in 10.0 mi ENE 10.4 mph 18.4 mph N/A   Clear
2:54 AM 64.9 °F - 60.1 °F 84% 29.96 in 10.0 mi ESE 8.1 mph - N/A   Clear
3:54 AM 64.0 °F - 60.1 °F 87% 29.95 in 10.0 mi South 4.6 mph - N/A   Partly Cloudy
4:54 AM 62.1 °F - 57.9 °F 86% 29.96 in 10.0 mi SSW 5.8 mph - N/A   Clear
5:54 AM 66.9 °F - 61.0 °F 81% 29.96 in 10.0 mi East 4.6 mph - N/A   Clear
6:54 AM 63.0 °F - 59.0 °F 87% 29.97 in 10.0 mi SSE 3.5 mph - N/A   Clear
7:54 AM 63.0 °F - 59.0 °F 87% 29.99 in 10.0 mi South 5.8 mph - N/A   Clear
8:54 AM 73.9 °F - 63.0 °F 68% 29.98 in 10.0 mi ENE 15.0 mph 19.6 mph N/A   Partly Cloudy
9:54 AM 75.9 °F - 60.1 °F 58% 30.00 in 10.0 mi South 6.9 mph - N/A   Partly Cloudy
10:54 AM 79.0 °F - 62.1 °F 56% 29.98 in 10.0 mi SSE 5.8 mph - N/A   Scattered Clouds
11:54 AM 80.1 °F 80.9 °F 60.1 °F 50% 29.95 in 10.0 mi ENE 4.6 mph - N/A   Scattered Clouds
12:54 PM 81.0 °F 82.5 °F 64.0 °F 56% 29.91 in 10.0 mi NE 12.7 mph 28.8 mph N/A   Scattered Clouds
1:54 PM 81.0 °F 81.9 °F 62.1 °F 52% 29.89 in 10.0 mi ENE 16.1 mph 28.8 mph N/A   Partly Cloudy
2:54 PM 81.0 °F 82.2 °F 63.0 °F 54% 29.90 in 10.0 mi East 18.4 mph 28.8 mph N/A   Scattered Clouds
3:54 PM 80.1 °F 81.1 °F 61.0 °F 52% 29.91 in 10.0 mi ENE 18.4 mph 26.5 mph N/A   Scattered Clouds
4:54 PM 78.1 °F - 61.0 °F 56% 29.94 in 10.0 mi East 21.9 mph 29.9 mph N/A   Scattered Clouds
5:54 PM 73.9 °F - 60.1 °F 62% 29.96 in 10.0 mi ENE 13.8 mph 25.3 mph N/A   Scattered Clouds
6:54 PM 72.0 °F - 61.0 °F 68% 29.96 in 10.0 mi ENE 19.6 mph 27.6 mph N/A   Scattered Clouds
7:54 PM 72.0 °F - 62.1 °F 71% 29.98 in 10.0 mi ENE 13.8 mph 23.0 mph N/A   Partly Cloudy
8:54 PM 71.1 °F - 62.1 °F 73% 29.99 in 10.0 mi NE 13.8 mph - N/A   Partly Cloudy
9:54 PM 70.0 °F - 60.1 °F 71% 30.00 in 10.0 mi NE 9.2 mph - N/A   Partly Cloudy
10:54 PM 70.0 °F - 64.0 °F 81% 30.00 in 10.0 mi NE 10.4 mph - N/A   Clear
11:54 PM 70.0 °F - 64.0 °F 81% 29.99 in 10.0 mi ENE 10.4 mph - N/A   Clear